This is the latest recevied weather packets stored in our database for station/object DL7KST-13. If no packets are shown the sender has not sent any weather packets the latest 10 day(s).
| Time | Temp. | Humidity | Pressure | Rain* | Wind** | Luminosity | Snow |
|---|---|---|---|---|---|---|---|
| 1777089694 | 5° C | 81% | 1004.1 hPa | 0 mm | 0.89 m/s, 340° | - | - |
| 1777088487 | 5° C | 82% | 1004 hPa | 0 mm | 0.89 m/s, 316° | - | - |
| 1777087282 | 5.56° C | 82% | 1004.3 hPa | 0 mm | 1.34 m/s, 258° | - | - |
| 1777086076 | 6.11° C | 83% | 1004.3 hPa | 0 mm | 0 m/s | - | - |
| 1777084871 | 6.11° C | 84% | 1004.6 hPa | 0 mm | 0.45 m/s, 23° | - | - |
| 1777083667 | 6.11° C | 85% | 1004.8 hPa | 0 mm | 0.45 m/s, 343° | - | - |
| 1777082462 | 6.11° C | 86% | 1004.7 hPa | 0 mm | 0.89 m/s, 6° | - | - |
| 1777081258 | 6.11° C | 88% | 1005.1 hPa | 0 mm | 1.34 m/s, 282° | - | - |
| 1777080052 | 6.11° C | 89% | 1004.9 hPa | 0 mm | 0.45 m/s, 334° | - | - |
| 1777078847 | 6.11° C | 89% | 1005 hPa | 0 mm | 1.34 m/s, 50° | - | - |
| 1777077641 | 6.11° C | 89% | 1005 hPa | 0 mm | 0 m/s | - | - |
| 1777076437 | 6.11° C | 89% | 1005.3 hPa | 0 mm | 0.45 m/s, 2° | - | - |
| 1777075231 | 6.11° C | 89% | 1005.4 hPa | 0 mm | 0.45 m/s, 163° | - | - |
| 1777074027 | 5.56° C | 89% | 1005.5 hPa | 0 mm | 0.45 m/s, 227° | - | - |
| 1777072822 | 5.56° C | 88% | 1005.8 hPa | 0 mm | 0.45 m/s, 66° | - | - |
| 1777071617 | 6.11° C | 87% | 1005.8 hPa | 0 mm | 0.89 m/s, 187° | - | - |
| 1777070412 | 6.11° C | 86% | 1006 hPa | 0 mm | 0.89 m/s, 85° | - | - |
| 1777069206 | 6.67° C | 86% | 1006.1 hPa | 0 mm | 0.45 m/s, 359° | - | - |
| 1777068001 | 6.67° C | 84% | 1006.1 hPa | 0 mm | 0.45 m/s, 20° | - | - |
| 1777066797 | 6.67° C | 83% | 1006.3 hPa | 0 mm | 0.45 m/s, 2° | - | - |
| 1777065592 | 7.22° C | 81% | 1006.4 hPa | 0 mm | 0.45 m/s, 350° | - | - |
| 1777064387 | 7.78° C | 81% | 1006.4 hPa | 0 mm | 0.45 m/s, 328° | - | - |
| 1777063182 | 7.78° C | 79% | 1006.8 hPa | 0 mm | 0 m/s | - | - |
| 1777061977 | 8.33° C | 78% | 1006.8 hPa | 0 mm | 0 m/s | - | - |
| 1777060771 | 8.89° C | 76% | 1006.6 hPa | 0 mm | 0 m/s | - | - |
* Rain latest hour (hover to see other rain measurements)
** Current wind speed in m/s (hover to see current wind gust speed)